Location: Banios
(43.0451°N, 0.2335°E)
Time: 08:46:11
(UTC+00:00)

A-11 Canister half - Pass Details

Date: 21 May 2021
Orbit: 1527 x 1681 km, 47.3° (Epoch: 22 June)

Event Time Altitude Azimuth Distance (km) Brightness Sun altitude
Rises 14:32:17 0° 293° (WNW) 4,836 12.0 50.2°
Reaches altitude 10° 14:36:02 10° 282° (WNW) 3,871 11.8 49.6°
Maximum altitude 14:43:38 26° 231° (SW) 2,840 11.8 48.3°
Drops below altitude 10° 14:51:23 10° 180° (S) 3,925 11.4 46.9°
Sets 14:55:16 0° 168° (SSE) 4,917 11.7 46.3°
